SAS50F ESSA-ESNQ

Flight info

Callsign SAS50F
Flight time 1h 28m
Altitude 39000
Route N0437F390 RESNA DCT OSK/N0423F380 DCT OSKIR DCT VAGAS
Aircraft A21N/M-SDE3FGHIJ1J3J4J7M3P2RWXYZ/LB1D1

Departure

Time 2026-04-12 10:11
Airport Stockholm-Arlanda Airport (ESSA)

Arrival

Time 2026-04-12 11:40
Airport Kiruna Airport (ESNQ)
Time Latitude Longitude Altitude Speed Heading
2026-04-12 09:44 59.65398 17.93527 117 ft 0 kts 76°
2026-04-12 10:04 59.65396 17.93512 114 ft 4 kts 76°
2026-04-12 10:04 59.65389 17.93461 114 ft 4 kts 74°
2026-04-12 10:05 59.65379 17.93415 116 ft 4 kts 47°
2026-04-12 10:05 59.65360 17.93393 113 ft 4 kts 352°
2026-04-12 10:05 59.65355 17.93394 116 ft 0 kts 346°
2026-04-12 10:08 59.65363 17.93390 112 ft 3 kts 346°
2026-04-12 10:08 59.65391 17.93376 113 ft 6 kts 346°
2026-04-12 10:08 59.65438 17.93353 115 ft 8 kts 346°
2026-04-12 10:09 59.65503 17.93346 118 ft 11 kts 353°
2026-04-12 10:09 59.65584 17.93309 115 ft 13 kts 345°
2026-04-12 10:09 59.65662 17.93370 114 ft 15 kts 47°
2026-04-12 10:09 59.65728 17.93507 115 ft 13 kts 46°
2026-04-12 10:10 59.65794 17.93638 121 ft 7 kts 40°
2026-04-12 10:10 59.65848 17.93701 119 ft 11 kts 55°
2026-04-12 10:10 59.65855 17.93737 121 ft 2 kts 83°
2026-04-12 10:10 59.65863 17.93804 119 ft 21 kts 76°
2026-04-12 10:11 59.65964 17.94586 123 ft 94 kts 77°
2026-04-12 10:11 59.66171 17.96219 128 ft 148 kts 79°
2026-04-12 10:11 59.66425 17.98275 649 ft 152 kts 82°
2026-04-12 10:11 59.66651 18.00304 1362 ft 156 kts 78°
2026-04-12 10:12 59.66948 18.02466 1935 ft 171 kts 79°
2026-04-12 10:12 59.66907 18.04860 2633 ft 183 kts 111°
2026-04-12 10:12 59.66128 18.06986 3284 ft 204 kts 145°
2026-04-12 10:12 59.64785 18.07899 4269 ft 210 kts 179°
2026-04-12 10:13 59.63399 18.07016 5358 ft 217 kts 216°
2026-04-12 10:13 59.62515 18.04578 6420 ft 227 kts 251°
2026-04-12 10:13 59.62455 18.01434 7437 ft 235 kts 277°
2026-04-12 10:13 59.62745 17.98228 8451 ft 241 kts 279°
2026-04-12 10:14 59.63259 17.95043 9430 ft 248 kts 300°
2026-04-12 10:14 59.64410 17.92465 10426 ft 253 kts 319°
2026-04-12 10:14 59.65917 17.90661 11270 ft 260 kts 343°
2026-04-12 10:14 59.67765 17.89850 11695 ft 284 kts 353°
2026-04-12 10:15 59.69806 17.89166 12100 ft 311 kts 352°
2026-04-12 10:15 59.72007 17.88347 12633 ft 332 kts 351°
2026-04-12 10:15 59.74308 17.87410 13491 ft 341 kts 351°
2026-04-12 10:15 59.76651 17.86410 14446 ft 347 kts 351°
2026-04-12 10:16 59.79065 17.85360 15335 ft 353 kts 351°
2026-04-12 10:16 59.81498 17.84591 16178 ft 355 kts
2026-04-12 10:16 59.83919 17.85035 16998 ft 355 kts 13°
2026-04-12 10:16 59.86403 17.85899 17844 ft 361 kts 15°
2026-04-12 10:17 59.88862 17.86777 18657 ft 366 kts 15°
2026-04-12 10:17 59.91422 17.87664 19400 ft 371 kts 15°
2026-04-12 10:17 59.93987 17.88522 20111 ft 377 kts 14°
2026-04-12 10:17 59.96601 17.89337 20810 ft 382 kts 14°
2026-04-12 10:18 59.99242 17.90166 21491 ft 387 kts 14°
2026-04-12 10:18 60.01921 17.91047 22172 ft 392 kts 15°
2026-04-12 10:18 60.04625 17.91927 22839 ft 397 kts 15°
2026-04-12 10:18 60.07373 17.92802 23498 ft 402 kts 15°
2026-04-12 10:19 60.10148 17.93689 24092 ft 407 kts 15°
2026-04-12 10:19 60.12955 17.94611 24655 ft 410 kts 14°
2026-04-12 10:19 60.15781 17.95566 25221 ft 414 kts 14°
2026-04-12 10:19 60.18634 17.96513 25764 ft 418 kts 14°
2026-04-12 10:20 60.21514 17.97470 26307 ft 421 kts 14°
2026-04-12 10:20 60.24419 17.98452 26834 ft 425 kts 14°
2026-04-12 10:20 60.27349 17.99439 27343 ft 429 kts 13°
2026-04-12 10:20 60.30310 18.00401 27837 ft 433 kts 13°
2026-04-12 10:21 60.33298 18.01356 28317 ft 436 kts 13°
2026-04-12 10:21 60.36310 18.02316 28793 ft 440 kts 13°
2026-04-12 10:21 60.39358 18.03217 29257 ft 444 kts 12°
2026-04-12 10:21 60.42417 18.04124 29695 ft 447 kts 12°
2026-04-12 10:22 60.45513 18.05042 30138 ft 451 kts 12°
2026-04-12 10:22 60.48629 18.05944 30540 ft 454 kts 12°
2026-04-12 10:22 60.51762 18.06858 30957 ft 455 kts 12°
2026-04-12 10:22 60.54893 18.07777 31398 ft 455 kts 11°
2026-04-12 10:23 60.58035 18.08692 31844 ft 456 kts 11°
2026-04-12 10:23 60.61176 18.09603 32276 ft 457 kts 11°
2026-04-12 10:23 60.64310 18.10518 32822 ft 454 kts 11°
2026-04-12 10:23 60.67429 18.11426 33460 ft 449 kts 10°
2026-04-12 10:24 60.70506 18.12321 33995 ft 447 kts 11°
2026-04-12 10:24 60.73602 18.13245 34228 ft 451 kts 11°
2026-04-12 10:24 60.76704 18.14195 34589 ft 450 kts 10°
2026-04-12 10:24 60.78797 18.14809 34826 ft 450 kts 10°
2026-04-12 10:25 60.81903 18.15710 35166 ft 450 kts 10°
2026-04-12 10:25 60.84992 18.16607 35489 ft 449 kts 10°
2026-04-12 10:25 60.88093 18.17514 35798 ft 449 kts 10°
2026-04-12 10:25 60.91183 18.18432 36108 ft 449 kts 10°
2026-04-12 10:26 60.94267 18.19365 36420 ft 448 kts 10°
2026-04-12 10:26 60.97355 18.20299 36733 ft 448 kts 10°
2026-04-12 10:26 61.00428 18.21227 37075 ft 446 kts 10°
2026-04-12 10:26 61.03510 18.22167 37236 ft 449 kts 10°
2026-04-12 10:27 61.06600 18.23106 37357 ft 450 kts 10°
2026-04-12 10:27 61.12792 18.24954 37341 ft 449 kts
2026-04-12 10:28 61.18975 18.26807 37333 ft 449 kts 10°
2026-04-12 10:28 61.25166 18.28708 37332 ft 449 kts 10°
2026-04-12 10:29 61.31355 18.30601 37337 ft 453 kts 10°
2026-04-12 10:29 61.37602 18.32514 37348 ft 454 kts 10°
2026-04-12 10:30 61.43863 18.34453 37336 ft 454 kts 10°
2026-04-12 10:30 61.50114 18.36399 37341 ft 454 kts 10°
2026-04-12 10:31 61.56369 18.38355 37341 ft 454 kts 10°
2026-04-12 10:31 61.62619 18.40318 37337 ft 455 kts 11°
2026-04-12 10:32 61.68891 18.42278 37340 ft 456 kts 11°
2026-04-12 10:32 61.75206 18.44269 37338 ft 456 kts 11°
2026-04-12 10:33 61.81476 18.46273 37342 ft 456 kts 11°
2026-04-12 10:33 61.87749 18.48267 37345 ft 456 kts 11°
2026-04-12 10:34 61.94022 18.50246 37346 ft 456 kts 11°
2026-04-12 10:34 62.00312 18.52212 37348 ft 456 kts 11°
2026-04-12 10:35 62.06585 18.54213 37348 ft 456 kts 12°
2026-04-12 10:35 62.12862 18.56255 37360 ft 456 kts 12°
2026-04-12 10:36 62.19131 18.58274 37344 ft 456 kts 12°
2026-04-12 10:36 62.25409 18.60304 37359 ft 456 kts 12°
2026-04-12 10:37 62.31690 18.62362 37360 ft 456 kts 12°
2026-04-12 10:37 62.37965 18.64415 37363 ft 456 kts 12°
2026-04-12 10:38 62.44235 18.66489 37363 ft 456 kts 12°
2026-04-12 10:38 62.50514 18.68574 37354 ft 457 kts 12°
2026-04-12 10:39 62.56822 18.70669 37370 ft 461 kts 12°
2026-04-12 10:39 62.63161 18.72790 37372 ft 461 kts 12°
2026-04-12 10:40 62.69504 18.74912 37372 ft 461 kts 11°
2026-04-12 10:40 62.75847 18.77052 37377 ft 461 kts 12°
2026-04-12 10:41 62.82182 18.79200 37369 ft 461 kts 12°
2026-04-12 10:41 62.88531 18.81353 37378 ft 461 kts 12°
2026-04-12 10:42 62.94878 18.83498 37379 ft 462 kts 12°
2026-04-12 10:42 63.01263 18.85672 37384 ft 461 kts 12°
2026-04-12 10:43 63.10778 18.88979 37373 ft 461 kts 12°
2026-04-12 10:43 63.17129 18.91177 37387 ft 462 kts 12°
2026-04-12 10:44 63.23474 18.93385 37390 ft 462 kts 12°
2026-04-12 10:44 63.29812 18.95596 37379 ft 461 kts 12°
2026-04-12 10:45 63.36164 18.97827 37375 ft 462 kts 12°
2026-04-12 10:45 63.42532 18.99891 37378 ft 462 kts
2026-04-12 10:46 63.48925 19.01494 37378 ft 463 kts
2026-04-12 10:46 63.55322 19.03102 37378 ft 463 kts
2026-04-12 10:47 63.61723 19.04751 37380 ft 463 kts
2026-04-12 10:47 63.68117 19.06411 37378 ft 462 kts
2026-04-12 10:48 63.74511 19.08023 37367 ft 463 kts
2026-04-12 10:48 63.80910 19.09659 37375 ft 463 kts
2026-04-12 10:49 63.87311 19.11307 37379 ft 463 kts
2026-04-12 10:49 63.93722 19.12967 37379 ft 463 kts
2026-04-12 10:50 64.00138 19.14678 37388 ft 464 kts
2026-04-12 10:50 64.06583 19.16433 37362 ft 468 kts
2026-04-12 10:51 64.13048 19.18158 37358 ft 468 kts
2026-04-12 10:51 64.19521 19.19901 37361 ft 468 kts
2026-04-12 10:52 64.25988 19.21625 37361 ft 468 kts
2026-04-12 10:52 64.32461 19.23336 37360 ft 468 kts
2026-04-12 10:53 64.38934 19.25096 37353 ft 468 kts
2026-04-12 10:53 64.45405 19.26855 37357 ft 468 kts
2026-04-12 10:54 64.51871 19.28651 37364 ft 467 kts
2026-04-12 10:54 64.58371 19.30424 37351 ft 467 kts
2026-04-12 10:55 64.64834 19.32194 37361 ft 468 kts
2026-04-12 10:55 64.71294 19.33966 37355 ft 467 kts
2026-04-12 10:56 64.77753 19.35783 37356 ft 468 kts
2026-04-12 10:56 64.84218 19.37592 37358 ft 468 kts
2026-04-12 10:57 64.90676 19.39397 37370 ft 467 kts
2026-04-12 10:57 64.96049 19.40917 37359 ft 467 kts
2026-04-12 10:58 65.02504 19.42744 37375 ft 468 kts
2026-04-12 10:58 65.08964 19.44608 37374 ft 467 kts
2026-04-12 10:59 65.15423 19.46437 37376 ft 467 kts
2026-04-12 10:59 65.21881 19.48285 37380 ft 467 kts
2026-04-12 11:00 65.28342 19.50162 37381 ft 467 kts
2026-04-12 11:00 65.34841 19.52052 37376 ft 468 kts
2026-04-12 11:01 65.41330 19.53940 37362 ft 471 kts
2026-04-12 11:01 65.47833 19.55850 37357 ft 471 kts
2026-04-12 11:02 65.54342 19.57771 37359 ft 471 kts
2026-04-12 11:02 65.60849 19.59694 37355 ft 471 kts
2026-04-12 11:03 65.67339 19.61634 37348 ft 469 kts
2026-04-12 11:03 65.73816 19.63587 37364 ft 469 kts
2026-04-12 11:04 65.80296 19.65536 37370 ft 469 kts
2026-04-12 11:04 65.86750 19.67477 36896 ft 463 kts
2026-04-12 11:05 65.89973 19.68457 35826 ft 472 kts
2026-04-12 11:05 65.93244 19.69460 35130 ft 472 kts
2026-04-12 11:05 65.96479 19.70443 34655 ft 466 kts
2026-04-12 11:05 65.99682 19.71426 34137 ft 460 kts
2026-04-12 11:06 66.02839 19.72399 33620 ft 454 kts
2026-04-12 11:06 66.05955 19.73357 33125 ft 449 kts
2026-04-12 11:06 66.09037 19.74302 32634 ft 444 kts
2026-04-12 11:06 66.12091 19.75244 32149 ft 442 kts
2026-04-12 11:07 66.15139 19.76191 31664 ft 439 kts
2026-04-12 11:07 66.18160 19.77135 31197 ft 437 kts
2026-04-12 11:07 66.21176 19.78061 30760 ft 435 kts
2026-04-12 11:07 66.24169 19.78989 30271 ft 433 kts
2026-04-12 11:08 66.27152 19.79928 29713 ft 431 kts
2026-04-12 11:08 66.30118 19.80869 29215 ft 427 kts
2026-04-12 11:08 66.33051 19.81789 28752 ft 423 kts
2026-04-12 11:08 66.35970 19.82709 28280 ft 421 kts
2026-04-12 11:09 66.38857 19.83628 27824 ft 417 kts
2026-04-12 11:09 66.41736 19.84542 27362 ft 415 kts
2026-04-12 11:09 66.44594 19.85444 26898 ft 413 kts
2026-04-12 11:09 66.47434 19.86346 26437 ft 411 kts
2026-04-12 11:10 66.50270 19.87244 25997 ft 409 kts
2026-04-12 11:10 66.53077 19.88145 25572 ft 406 kts
2026-04-12 11:10 66.55873 19.89040 25117 ft 405 kts
2026-04-12 11:10 66.58667 19.89930 24636 ft 404 kts
2026-04-12 11:11 66.61454 19.90828 24210 ft 402 kts
2026-04-12 11:11 66.64224 19.91727 23726 ft 401 kts
2026-04-12 11:11 66.66986 19.92630 23219 ft 399 kts
2026-04-12 11:11 66.69731 19.93524 22734 ft 396 kts
2026-04-12 11:12 66.72446 19.94396 22262 ft 391 kts
2026-04-12 11:12 66.75121 19.95257 21829 ft 386 kts
2026-04-12 11:12 66.77778 19.96118 21367 ft 382 kts
2026-04-12 11:12 66.80398 19.96975 20942 ft 377 kts
2026-04-12 11:13 66.82983 19.97824 20551 ft 372 kts
2026-04-12 11:13 66.85534 19.98661 20155 ft 368 kts
2026-04-12 11:13 66.88067 19.99494 19757 ft 364 kts
2026-04-12 11:13 66.90565 20.00317 19366 ft 361 kts
2026-04-12 11:14 66.93039 20.01132 18997 ft 357 kts
2026-04-12 11:14 66.95491 20.01945 18620 ft 353 kts
2026-04-12 11:14 66.97922 20.02757 18221 ft 353 kts
2026-04-12 11:14 67.00357 20.03568 17840 ft 353 kts
2026-04-12 11:15 67.02792 20.04376 17457 ft 353 kts
2026-04-12 11:15 67.05228 20.05187 17117 ft 352 kts
2026-04-12 11:15 67.07655 20.05996 16785 ft 351 kts
2026-04-12 11:15 67.10073 20.06808 16453 ft 350 kts
2026-04-12 11:16 67.12477 20.07615 16127 ft 348 kts
2026-04-12 11:16 67.14881 20.08430 15799 ft 348 kts
2026-04-12 11:16 67.17282 20.09239 15473 ft 347 kts
2026-04-12 11:16 67.19677 20.10043 15138 ft 348 kts
2026-04-12 11:17 67.22077 20.10854 14802 ft 347 kts
2026-04-12 11:17 67.24463 20.11665 14486 ft 344 kts
2026-04-12 11:17 67.26855 20.12476 14156 ft 339 kts
2026-04-12 11:17 67.29144 20.13280 13844 ft 333 kts
2026-04-12 11:18 67.31420 20.14142 13531 ft 327 kts
2026-04-12 11:18 67.33694 20.15011 12789 ft 336 kts
2026-04-12 11:18 67.36016 20.15902 12272 ft 338 kts
2026-04-12 11:18 67.38329 20.16784 11873 ft 335 kts
2026-04-12 11:19 67.40634 20.17664 11459 ft 334 kts
2026-04-12 11:19 67.42955 20.18549 11065 ft 332 kts
2026-04-12 11:19 67.45198 20.19411 10720 ft 328 kts
2026-04-12 11:19 67.47489 20.20297 10293 ft 328 kts
2026-04-12 11:20 67.49742 20.21168 9643 ft 327 kts
2026-04-12 11:20 67.51979 20.22032 8945 ft 324 kts
2026-04-12 11:20 67.54198 20.22894 8255 ft 321 kts
2026-04-12 11:20 67.56404 20.23758 7552 ft 319 kts
2026-04-12 11:21 67.58593 20.24606 7189 ft 315 kts
2026-04-12 11:21 67.60731 20.25440 7040 ft 305 kts
2026-04-12 11:21 67.62801 20.26243 6911 ft 295 kts
2026-04-12 11:21 67.64795 20.27015 6777 ft 285 kts
2026-04-12 11:22 67.66723 20.27764 6643 ft 275 kts
2026-04-12 11:22 67.68587 20.28503 6325 ft 270 kts
2026-04-12 11:22 67.70436 20.29384 5945 ft 269 kts
2026-04-12 11:22 67.72263 20.30301 5659 ft 264 kts
2026-04-12 11:23 67.74031 20.31198 5520 ft 254 kts
2026-04-12 11:23 67.75654 20.32856 5271 ft 251 kts 33°
2026-04-12 11:23 67.77001 20.35625 5174 ft 235 kts 40°
2026-04-12 11:23 67.78190 20.38326 5101 ft 220 kts 41°
2026-04-12 11:24 67.79328 20.40927 4983 ft 208 kts 41°
2026-04-12 11:24 67.80392 20.43365 4825 ft 199 kts 41°
2026-04-12 11:24 67.81426 20.45734 4435 ft 196 kts 41°
2026-04-12 11:24 67.82454 20.48098 4023 ft 195 kts 41°
2026-04-12 11:25 67.83477 20.50447 3641 ft 195 kts 40°
2026-04-12 11:25 67.84504 20.52782 3238 ft 193 kts 37°
2026-04-12 11:25 67.85740 20.53733 2837 ft 184 kts 353°
2026-04-12 11:25 67.86849 20.52666 2658 ft 162 kts 317°
2026-04-12 11:26 67.87585 20.50626 2513 ft 146 kts 301°
2026-04-12 11:26 67.88004 20.48295 2428 ft 137 kts 276°
2026-04-12 11:26 67.87959 20.45875 2371 ft 128 kts 241°
2026-04-12 11:26 67.87456 20.43969 2436 ft 126 kts 229°
2026-04-12 11:27 67.86858 20.42264 2350 ft 126 kts 221°
2026-04-12 11:27 67.86183 20.40783 2183 ft 126 kts 216°
2026-04-12 11:27 67.85468 20.39470 2025 ft 124 kts 213°
2026-04-12 11:27 67.84752 20.38193 1857 ft 123 kts 213°
2026-04-12 11:28 67.84042 20.36932 1689 ft 123 kts 213°
2026-04-12 11:28 67.83330 20.35670 1564 ft 123 kts 213°
2026-04-12 11:28 67.82589 20.34371 1703 ft 135 kts 213°
2026-04-12 11:28 67.81782 20.32942 2298 ft 151 kts 211°
2026-04-12 11:29 67.80658 20.32380 2837 ft 187 kts 176°
2026-04-12 11:29 67.79420 20.33962 3054 ft 208 kts 142°
2026-04-12 11:29 67.78638 20.37223 2971 ft 218 kts 111°
2026-04-12 11:29 67.78581 20.41288 2979 ft 229 kts 80°
2026-04-12 11:30 67.79296 20.44964 2972 ft 223 kts 47°
2026-04-12 11:30 67.80487 20.47342 2939 ft 206 kts 33°
2026-04-12 11:30 67.81260 20.48652 2966 ft 193 kts 32°
2026-04-12 11:30 67.82366 20.50457 2863 ft 184 kts 32°
2026-04-12 11:31 67.83461 20.52196 2809 ft 188 kts 28°
2026-04-12 11:31 67.84763 20.52744 2693 ft 183 kts 346°
2026-04-12 11:31 67.85781 20.51231 2526 ft 158 kts 309°
2026-04-12 11:31 67.86459 20.49132 2468 ft 146 kts 301°
2026-04-12 11:32 67.86889 20.46813 2340 ft 136 kts 268°
2026-04-12 11:32 67.86755 20.44395 2318 ft 132 kts 250°
2026-04-12 11:32 67.86394 20.42195 2230 ft 129 kts 234°
2026-04-12 11:32 67.85824 20.40379 2142 ft 127 kts 222°
2026-04-12 11:33 67.85149 20.38894 1993 ft 126 kts 215°
2026-04-12 11:33 67.84423 20.37609 1827 ft 125 kts 213°
2026-04-12 11:33 67.83703 20.36347 1646 ft 124 kts 214°
2026-04-12 11:33 67.82990 20.35061 1523 ft 125 kts 213°
2026-04-12 11:34 67.82209 20.33672 1856 ft 141 kts 213°
2026-04-12 11:34 67.81392 20.32211 2391 ft 144 kts 211°
2026-04-12 11:34 67.80332 20.31457 2669 ft 185 kts 180°
2026-04-12 11:34 67.79035 20.32517 2814 ft 204 kts 150°
2026-04-12 11:35 67.78129 20.35483 2820 ft 217 kts 117°
2026-04-12 11:35 67.77936 20.39481 2742 ft 226 kts 85°
2026-04-12 11:35 67.78549 20.43307 2609 ft 230 kts 52°
2026-04-12 11:35 67.79704 20.46250 2647 ft 231 kts 43°
2026-04-12 11:36 67.80884 20.48923 2685 ft 212 kts 40°
2026-04-12 11:36 67.81942 20.51170 2873 ft 185 kts 39°
2026-04-12 11:36 67.82984 20.53205 2762 ft 199 kts 37°
2026-04-12 11:36 67.84070 20.55238 2914 ft 178 kts 34°
2026-04-12 11:37 67.85189 20.56070 2680 ft 161 kts 349°
2026-04-12 11:37 67.86106 20.54755 2579 ft 148 kts 308°
2026-04-12 11:37 67.86732 20.52651 2500 ft 142 kts 287°
2026-04-12 11:37 67.86960 20.50160 2443 ft 138 kts 271°
2026-04-12 11:38 67.86961 20.47666 2370 ft 134 kts 260°
2026-04-12 11:38 67.86825 20.45246 2339 ft 131 kts 251°
2026-04-12 11:38 67.86531 20.42986 2209 ft 129 kts 239°
2026-04-12 11:38 67.86030 20.41042 2119 ft 127 kts 227°
2026-04-12 11:39 67.85406 20.39403 1971 ft 125 kts 218°
2026-04-12 11:39 67.84699 20.38048 1832 ft 125 kts 213°
2026-04-12 11:39 67.83974 20.36804 1688 ft 124 kts 213°
2026-04-12 11:39 67.83261 20.35548 1558 ft 124 kts 214°
2026-04-12 11:40 67.82783 20.34708 1459 ft 119 kts 213°
2026-04-12 11:40 67.82157 20.33618 1475 ft 35 kts 213°
2026-04-12 11:40 67.82086 20.33493 1480 ft 12 kts 213°
2026-04-12 11:40 67.82033 20.33379 1480 ft 11 kts 229°
2026-04-12 11:41 67.82003 20.33370 1488 ft 8 kts 63°
2026-04-12 11:41 67.82058 20.33447 1475 ft 10 kts 28°
2026-04-12 11:41 67.82122 20.33552 1483 ft 12 kts 34°
2026-04-12 11:41 67.82194 20.33680 1480 ft 13 kts 34°
2026-04-12 11:42 67.82275 20.33826 1467 ft 15 kts 34°
2026-04-12 11:42 67.82356 20.33944 1470 ft 13 kts
2026-04-12 11:42 67.82423 20.33782 1468 ft 12 kts 303°
2026-04-12 11:43 67.82464 20.33485 1469 ft 5 kts 298°
2026-04-12 11:43 67.82488 20.33479 1468 ft 4 kts 15°
2026-04-12 11:43 67.82500 20.33493 1473 ft 1 kts 27°